TimeEDT,TemperatureF,Dew PointF,Humidity,Sea Level PressureIn,VisibilityMPH,Wind Direction,Wind SpeedMPH,Gust SpeedMPH,PrecipitationIn,Events,Conditions,WindDirDegrees,DateUTC
12:15 AM,33.8,29.1,83,30.22,10.0,Calm,Calm,-,N/A,,Clear,0,2012-10-11 04:15:00
12:34 AM,33.3,28.8,84,30.22,10.0,SW,3.5,-,N/A,,Clear,230,2012-10-11 04:34:00
12:54 AM,31.8,28.0,86,30.23,10.0,SW,4.6,-,N/A,,Clear,230,2012-10-11 04:54:00
1:15 AM,31.5,28.2,88,30.23,10.0,WSW,4.6,-,N/A,,Clear,240,2012-10-11 05:15:00
1:34 AM,32.2,28.9,88,30.22,10.0,Calm,Calm,-,N/A,,Clear,0,2012-10-11 05:34:00
1:54 AM,32.2,28.4,86,30.22,10.0,Calm,Calm,-,N/A,,Clear,0,2012-10-11 05:54:00
2:15 AM,31.8,27.5,84,30.22,10.0,Calm,Calm,-,N/A,,Clear,0,2012-10-11 06:15:00
2:34 AM,32.2,27.9,84,30.22,10.0,Calm,Calm,-,N/A,,Clear,0,2012-10-11 06:34:00
2:54 AM,32.2,28.2,85,30.22,10.0,Calm,Calm,-,N/A,,Clear,0,2012-10-11 06:54:00
3:15 AM,30.9,27.5,87,30.22,10.0,SW,3.5,-,N/A,,Clear,230,2012-10-11 07:15:00
3:34 AM,30.6,27.1,87,30.22,10.0,WSW,3.5,-,N/A,,Clear,240,2012-10-11 07:34:00
3:54 AM,30.0,26.8,88,30.23,10.0,Calm,Calm,-,N/A,,Clear,0,2012-10-11 07:54:00
4:15 AM,30.0,26.8,88,30.24,10.0,SW,3.5,-,N/A,,Clear,230,2012-10-11 08:15:00
4:34 AM,30.6,27.5,88,30.24,10.0,SW,4.6,-,N/A,,Clear,230,2012-10-11 08:34:00
4:54 AM,30.9,27.3,86,30.25,10.0,SW,3.5,-,N/A,,Clear,220,2012-10-11 08:54:00
5:15 AM,31.3,27.3,85,30.25,10.0,SW,4.6,-,N/A,,Clear,220,2012-10-11 09:15:00
5:34 AM,30.7,27.0,86,30.26,10.0,SW,4.6,-,N/A,,Clear,230,2012-10-11 09:34:00
5:54 AM,30.4,27.1,88,30.26,10.0,Calm,Calm,-,N/A,,Clear,0,2012-10-11 09:54:00
6:15 AM,30.2,26.4,86,30.26,10.0,Calm,Calm,-,N/A,,Clear,0,2012-10-11 10:15:00
6:34 AM,30.4,26.6,86,30.26,10.0,SW,3.5,-,N/A,,Clear,230,2012-10-11 10:34:00
7:15 AM,31.5,27.1,84,30.27,10.0,SW,3.5,-,N/A,,Clear,220,2012-10-11 11:15:00
7:34 AM,30.7,26.8,85,30.27,10.0,Calm,Calm,-,N/A,,Clear,0,2012-10-11 11:34:00
7:54 AM,30.2,27.0,88,30.27,10.0,Calm,Calm,-,N/A,,Clear,0,2012-10-11 11:54:00
8:15 AM,30.9,27.0,85,30.28,10.0,Calm,Calm,-,N/A,,Clear,0,2012-10-11 12:15:00
8:34 AM,32.4,29.1,88,30.28,10.0,SW,4.6,-,N/A,,Clear,230,2012-10-11 12:34:00
8:54 AM,35.1,29.8,81,30.28,10.0,SW,4.6,-,N/A,,Clear,230,2012-10-11 12:54:00
9:14 AM,37.6,30.7,76,30.28,10.0,SW,6.9,-,N/A,,Clear,220,2012-10-11 13:14:00
9:34 AM,40.5,31.1,69,30.29,10.0,SW,8.1,-,N/A,,Clear,230,2012-10-11 13:34:00
9:55 AM,42.6,30.7,63,30.29,10.0,SW,9.2,-,N/A,,Clear,220,2012-10-11 13:55:00
10:14 AM,45.1,32.0,60,30.29,10.0,SW,6.9,-,N/A,,Clear,230,2012-10-11 14:14:00
10:34 AM,47.7,31.3,53,30.29,10.0,WSW,8.1,-,N/A,,Clear,240,2012-10-11 14:34:00
10:55 AM,50.0,28.6,44,30.28,10.0,WSW,10.4,17.3,N/A,,Clear,240,2012-10-11 14:55:00
11:14 AM,51.3,28.2,41,30.27,10.0,West,10.4,17.3,N/A,,Clear,260,2012-10-11 15:14:00
11:34 AM,51.8,27.5,39,30.27,10.0,WSW,12.7,18.4,N/A,,Clear,250,2012-10-11 15:34:00
11:55 AM,52.7,27.3,38,30.26,10.0,SW,12.7,-,N/A,,Clear,230,2012-10-11 15:55:00
12:14 PM,53.8,28.2,37,30.25,10.0,West,13.8,17.3,N/A,,Clear,260,2012-10-11 16:14:00
12:34 PM,54.1,27.9,36,30.24,10.0,SW,9.2,17.3,N/A,,Clear,230,2012-10-11 16:34:00
12:55 PM,54.9,27.3,35,30.24,10.0,WSW,11.5,-,N/A,,Clear,240,2012-10-11 16:55:00
1:14 PM,55.4,27.1,34,30.23,10.0,WSW,9.2,-,N/A,,Clear,240,2012-10-11 17:14:00
1:54 PM,56.7,24.4,29,30.20,10.0,WSW,9.2,18.4,N/A,,Clear,250,2012-10-11 17:54:00
2:14 PM,57.6,25.5,29,30.19,10.0,SW,12.7,19.6,N/A,,Clear,220,2012-10-11 18:14:00
2:35 PM,57.9,24.6,28,30.18,10.0,SW,13.8,-,N/A,,Clear,220,2012-10-11 18:35:00
2:54 PM,58.3,24.4,27,30.17,10.0,WSW,13.8,17.3,N/A,,Clear,250,2012-10-11 18:54:00
3:14 PM,58.6,25.3,28,30.17,10.0,SW,8.1,18.4,N/A,,Clear,230,2012-10-11 19:14:00
3:34 PM,58.6,25.9,29,30.17,10.0,WSW,8.1,18.4,N/A,,Clear,240,2012-10-11 19:34:00
3:54 PM,58.8,27.3,30,30.16,10.0,West,10.4,-,N/A,,Clear,260,2012-10-11 19:54:00
4:14 PM,58.3,26.4,30,30.17,10.0,WSW,11.5,16.1,N/A,,Clear,250,2012-10-11 20:14:00
4:35 PM,59.2,25.9,28,30.16,10.0,WSW,12.7,-,N/A,,Clear,240,2012-10-11 20:35:00
4:54 PM,57.7,26.8,31,30.16,10.0,West,11.5,20.7,N/A,,Clear,260,2012-10-11 20:54:00
5:14 PM,57.9,27.7,32,30.17,10.0,WNW,9.2,-,N/A,,Clear,290,2012-10-11 21:14:00
5:35 PM,57.4,27.1,31,30.16,10.0,West,11.5,-,N/A,,Clear,260,2012-10-11 21:35:00
6:14 PM,55.6,27.0,33,30.15,10.0,SW,10.4,-,N/A,,Clear,230,2012-10-11 22:14:00
6:54 PM,52.0,29.5,42,30.16,10.0,West,5.8,-,N/A,,Clear,260,2012-10-11 22:54:00
7:35 PM,47.5,30.2,51,30.17,10.0,WSW,4.6,-,N/A,,Clear,250,2012-10-11 23:35:00
7:54 PM,46.2,31.1,56,30.16,10.0,SSW,5.8,-,N/A,,Clear,210,2012-10-11 23:54:00
8:14 PM,44.8,30.9,58,30.16,10.0,SSW,5.8,-,N/A,,Clear,210,2012-10-12 00:14:00
8:35 PM,45.3,30.9,57,30.16,10.0,SSW,4.6,-,N/A,,Clear,210,2012-10-12 00:35:00
9:14 PM,43.9,32.0,63,30.17,10.0,SW,5.8,-,N/A,,Clear,220,2012-10-12 01:14:00
9:35 PM,46.2,31.5,56,30.17,10.0,SW,5.8,-,N/A,,Clear,230,2012-10-12 01:35:00
9:54 PM,45.1,31.1,58,30.18,10.0,WSW,3.5,-,N/A,,Clear,240,2012-10-12 01:54:00
10:14 PM,44.4,31.3,60,30.18,10.0,Calm,Calm,-,N/A,,Clear,0,2012-10-12 02:14:00
10:54 PM,44.6,31.5,60,30.17,10.0,SW,5.8,-,N/A,,Clear,230,2012-10-12 02:54:00
11:54 PM,45.5,31.1,57,30.18,10.0,WNW,3.5,-,N/A,,Clear,290,2012-10-12 03:54:00